Regional Weather Roundup
Issued by NWS

Home | Current Version | Previous Version | Text Only | Print | Product List | Glossary On
Versions: 1 2 3 4 5 6 7 8 9 10 11 12 13 14 15 16 17 18 19 20 21 22 23 24 25 26 27 28 29 30 31 32 33 34 35 36 37 38 39 40 41 42 43 44 45 46 47 48 49 50
000
ASUS43 KLMK 281010
RWRKY
KENTUCKY REGIONAL WEATHER ROUNDUP
NATIONAL WEATHER SERVICE LOUISVILLE KY
600 AM EDT THU MAY 28 2015

NOTE "FAIR" INDICATES FEW OR NO CLOUDS BELOW 12,000 FEET
WITH NO SIGNIFICANT WEATHER AND/OR OBSTRUCTIONS TO VISIBILITY.

KYZ001>023-026-027-061>063-070>075-281100-
WESTERN AND SOUTH CENTRAL KENTUCKY

CITY           SKY/WX    TMP DP  RH WIND       PRES   REMARKS
PADUCAH        PTCLDY    67  64  90 SW5       30.13F
HENDERSON      PTCLDY    63  61  94 CALM      30.14S
OWENSBORO      FOG       64  64 100 E3        30.17R VSB 3/4
HOPKINSVILLE   FOG       63  63 100 N3        30.16R VSB 1
BOWLING GREEN  MOCLDY    66  63  90 CALM      30.17R
GLASGOW        CLOUDY    64  64 100 CALM      30.18R
$$

KYZ024-025-028>034-038-045-046-053-281100-
NORTH CENTRAL KENTUCKY

CITY           SKY/WX    TMP DP  RH WIND       PRES   REMARKS
LOUISVILLE/SDF CLOUDY    67  64  90 CALM      30.18R
LOUISVILLE/LOU CLOUDY    65  63  93 CALM      30.18R
FORT KNOX      FOG       61  61 100 CALM      30.17R VSB 1/2
$$

KYZ035>037-039>044-047>052-055>060-089>105-281100-
NORTHEAST KENTUCKY

CITY           SKY/WX    TMP DP  RH WIND       PRES   REMARKS
LEXINGTON      CLOUDY    60  59  96 S7        30.20R
COVINGTON      CLOUDY    64  62  93 VRB5      30.19R FOG
FRANKFORT      CLOUDY    60  59  96 CALM      30.19R
$$

KYZ054-064>069-076>088-106>120-281100-
SOUTHEAST KENTUCKY

CITY           SKY/WX    TMP DP  RH WIND       PRES   REMARKS
JACKSON        CLEAR     63  59  87 CALM      30.22R
LONDON         CLOUDY    62  57  83 CALM      30.21R
SOMERSET       CLOUDY    59  59 100 CALM      30.21R
MIDDLESBORO    FOG       64  64 100 CALM      30.22S VSB 1
MONTICELLO     CLOUDY    62  62 100 CALM      30.22R
$$



USA.gov is the U.S. government's official web portal to all federal, state and local government web resources and services.